Regional Weather Roundup
Issued by NWS

Home | Current Version | Previous Version | Text Only | Print | Product List | Glossary Off
Versions: 1 2 3 4 5 6 7 8 9 10 11 12 13 14 15 16 17 18 19 20 21 22 23 24 25 26 27 28 29 30 31 32 33 34 35 36 37 38 39 40 41 42 43 44 45 46 47 48 49 50

000
ASUS43 KOAX 200810
RWRNE

WEATHER ROUNDUP FOR NEBRASKA
NATIONAL WEATHER SERVICE OMAHA NE
200 AM CST MON FEB 20 2017

NOTES: SATELLITE DATA IS BEING USED TO AUGMENT CLOUD COVER ABOVE
       12000 FEET.
       "FAIR" INDICATES FEW OR NO CLOUDS BELOW 12,000 FEET WITH NO
       SIGNIFICANT WEATHER AND/OR OBSTRUCTIONS TO VISIBILITY.

  * THESE STATIONS DO NOT REPORT WEATHER SUCH AS RAIN...SNOW OR FOG.

NEZ001>004-019>022-054>056-200900-
NEBRASKA PANHANDLE

CITY           SKY/WX    TMP DP  RH WIND       PRES   REMARKS
SCOTTSBLUFF    CLOUDY    46  35  65 W9        29.72R
ALLIANCE       LGT RAIN  46  38  73 W14       29.67R
CHADRON        CLOUDY    47  40  76 SW8       29.63F
KIMBALL        CLOUDY    46  30  54 NW21G28   29.76R
SIDNEY         CLOUDY    49  30  48 NW25G36   29.72R
$$

NEZ057>060-069>072-079>082-200900-
SOUTHWEST NEBRASKA

CITY           SKY/WX    TMP DP  RH WIND       PRES   REMARKS
NORTH PLATTE   PTCLDY    51  47  86 SE8       29.64F
IMPERIAL       PTCLDY    48  31  51 W5        29.64S
LEXINGTON      CLOUDY    55  51  89 SE12      29.67F FOG
MCCOOK         MOCLDY    50  45  83 SE7       29.66F
OGALLALA       PTCLDY    46  32  58 W6        29.66R
$$

NEZ005>010-023>029-035>040-094-200900-
NORTH CENTRAL NEBRASKA

CITY           SKY/WX    TMP DP  RH WIND       PRES   REMARKS
VALENTINE      PTCLDY    50  44  80 SW8       29.60R
AINSWORTH      MOCLDY    51  49  95 S9        29.62F
BROKEN BOW     CLOUDY    54  51  90 S7        29.67F
O`NEILL        CLOUDY    57  54  90 S12       29.67R
ORD            CLOUDY    57  51  80 S14       29.69R
THEDFORD       MOCLDY    53  48  81 S10       29.63S
$$

NEZ041-046>049-061>064-073>077-083>087-200900-
SOUTH CENTRAL NEBRASKA

CITY           SKY/WX    TMP DP  RH WIND       PRES   REMARKS
GRAND ISLAND   CLOUDY    53  52  96 S14G22    29.70F FOG
AURORA         CLOUDY    52  51  96 S12       29.70F FOG
HASTINGS       CLOUDY    54  52  93 S9        29.71F FOG
HEBRON         CLOUDY    58  55  90 S18G24    29.72F
HOLDREGE       CLOUDY    54  53  95 S14       29.68R FOG
KEARNEY *      CLOUDY    55  52  88 S13       29.70R
YORK           CLOUDY    55  54  94 S13       29.71F
$$

NEZ011>018-030>034-042>045-200900-
NORTHEAST NEBRASKA

CITY           SKY/WX    TMP DP  RH WIND       PRES   REMARKS
NORFOLK        CLOUDY    52  49  89 SE9       29.70F
ALBION         CLOUDY    54  50  87 SE10      29.70S FOG
BLAIR          CLOUDY    58  54  85 S16G22    29.76F
FREMONT        CLOUDY    57  53  86 SE12      29.75F
TEKAMAH        CLOUDY    53  50  89 SE9       29.76F
WAYNE          CLOUDY    51  51  99 S9        29.72S
$$

NEZ050>053-065>068-078-088>093-200900-
SOUTHEAST NEBRASKA

CITY           SKY/WX    TMP DP  RH WIND       PRES   REMARKS
LINCOLN        CLOUDY    60  55  83 S15       29.76S
OMAHA EPPLEY   CLOUDY    59  52  77 S15       29.78F
BEATRICE       CLOUDY    61  57  88 S18G26    29.74F
FALLS CITY     CLOUDY    55  52  89 SE6       29.81F
NEBRASKA CITY  CLOUDY    55  53  94 SE7       29.80F FOG
PLATTSMOUTH    CLOUDY    57  51  81 SE10      29.80S
$$

NEZ044-045-051>053-067-200900-
OMAHA AREA

CITY           SKY/WX    TMP DP  RH WIND       PRES   REMARKS
OMAHA EPPLEY   CLOUDY    59  52  77 S15       29.78F
BLAIR          CLOUDY    58  54  85 S16G22    29.76F
FREMONT        CLOUDY    57  53  86 SE12      29.75F
MILLARD        CLOUDY    61  56  83 SE10      29.78S
OFFUTT AFB     PTCLDY    63  63 100 SE9       29.79F
PLATTSMOUTH    CLOUDY    57  51  81 SE10      29.80S
WAHOO          FAIR      55  52  92 S13       29.76S
$$




USA.gov is the U.S. government's official web portal to all federal, state and local government web resources and services.